Weather History for Noatak, AK

Change the Weather History Date:

Saturday, August 25, 2012

  Actual Average Record
Temperature  
Mean Temperature 42 °F -  
Max Temperature 44 °F 54 °F 64 °F (2006)
Min Temperature 39 °F 38 °F 32 °F (2002)
Degree Days  
Heating Degree Days 24    
Moisture  
Dew Point 37 °F    
Average Humidity 89    
Maximum Humidity 93    
Minimum Humidity 76    
Precipitation  
Precipitation 0.00 in - - ()
Sea Level Pressure  
Sea Level Pressure 29.64 in    
Wind  
Wind Speed 12 mph (SW)    
Max Wind Speed 20 mph    
Max Gust Speed 26 mph    
Visibility 7 miles    
Events      
Averages and records for this station are not official NWS values.
T = Trace of Precipitation, MM = Missing Value Source: NWS Daily Summary

Daily Weather History Graph

Daily Weather History Graph

Search for Another Location

Airport:

Trip Planner

Search our weather history database for the weather conditions in past years. The results will help you decide how hot, cold, wet, or windy it might be!

Date:

Astronomy

Aug. 25, 2012 Rise Set
Actual Time 6:57 AM AKDT 10:47 PM AKDT
Civil Twilight 5:47 AM AKDT 11:56 PM AKDT
Nautical Twilight 3:26 AM AKDT 2:19 AM AKDT
Astronomical Twilight Sun does not rise Sun does not rise
Moon 8:55 PM AKDT 11:32 PM AKDT
Length of Visible Light 18h 09m
Length of Day
15h 50m
Waxing Gibbous, 64% of the Moon is Illuminated
Aug 25
Waxing Gibbous
Aug 31
Full
Sep 8
Last Quarter
Sep 15
New
Sep 22
First Quarter

Hourly Weather History & Observations

Time (AKDT) Temp. Windchill Dew Point Humidity Pressure Visibility Wind Dir Wind Speed Gust Speed Precip Events Conditions
12:16 AM 44.6 °F 39.2 °F 41.0 °F 87% 29.31 in 10.0 mi South 10.4 mph - N/A   Overcast
12:36 AM 44.6 °F 38.1 °F 42.8 °F 93% 29.33 in 3.0 mi SSW 13.8 mph 19.6 mph N/A   Overcast
12:56 AM 44.6 °F 37.8 °F 41.0 °F 87% 29.34 in 4.0 mi SSW 15.0 mph 21.9 mph N/A   Overcast
1:16 AM 42.8 °F 35.8 °F 41.0 °F 93% 29.34 in 3.0 mi SSW 13.8 mph 19.6 mph N/A   Overcast
1:36 AM 42.8 °F 35.8 °F 39.2 °F 87% 29.35 in 3.0 mi SSW 13.8 mph - N/A   Overcast
1:56 AM 42.8 °F 35.8 °F 39.2 °F 87% 29.37 in 4.0 mi SSW 13.8 mph 19.6 mph N/A   Overcast
2:16 AM 42.8 °F 35.8 °F 39.2 °F 87% 29.38 in 3.0 mi SSW 13.8 mph 20.7 mph N/A   Overcast
2:36 AM 42.8 °F 34.5 °F 39.2 °F 87% 29.39 in 6.0 mi SW 18.4 mph 23.0 mph N/A   Overcast
2:56 AM 42.8 °F 34.3 °F 39.2 °F 87% 29.40 in 5.0 mi SW 19.6 mph 26.5 mph N/A   Overcast
3:16 AM 41.0 °F 33.5 °F 39.2 °F 93% 29.40 in 4.0 mi SSW 13.8 mph 23.0 mph N/A   Overcast
3:36 AM 41.0 °F 33.1 °F 39.2 °F 93% 29.41 in 4.0 mi SW 15.0 mph 21.9 mph N/A   Overcast
3:56 AM 41.0 °F 32.8 °F 37.4 °F 87% 29.42 in 5.0 mi SSW 16.1 mph 20.7 mph N/A   Overcast
4:16 AM 41.0 °F 33.1 °F 37.4 °F 87% 29.43 in 3.0 mi SW 15.0 mph 21.9 mph N/A   Overcast
4:36 AM 39.2 °F 30.5 °F 37.4 °F 93% 29.45 in 3.0 mi SW 16.1 mph 23.0 mph N/A   Overcast
4:56 AM 39.2 °F 30.5 °F 37.4 °F 93% 29.47 in 2.5 mi SW 16.1 mph 20.7 mph N/A   Overcast
5:16 AM 39.2 °F 29.8 °F 37.4 °F 93% 29.48 in 3.0 mi SW 18.4 mph 26.5 mph N/A   Overcast
5:36 AM 39.2 °F 30.8 °F 37.4 °F 93% 29.49 in 4.0 mi SW 15.0 mph 21.9 mph N/A   Overcast
5:56 AM 39.2 °F 30.5 °F 37.4 °F 93% 29.50 in 9.0 mi SW 16.1 mph 21.9 mph N/A   Overcast
6:16 AM 39.2 °F 30.5 °F 37.4 °F 93% 29.52 in 10.0 mi SW 16.1 mph 23.0 mph N/A   Overcast
6:36 AM 39.2 °F 30.5 °F 37.4 °F 93% 29.53 in 7.0 mi WSW 16.1 mph 24.2 mph N/A   Overcast
6:56 AM 39.2 °F 31.2 °F 37.4 °F 93% 29.54 in 5.0 mi WSW 13.8 mph 21.9 mph N/A   Overcast
7:16 AM 39.2 °F 30.8 °F 37.4 °F 93% 29.55 in 4.0 mi SW 15.0 mph - N/A   Overcast
7:36 AM 39.2 °F 31.2 °F 37.4 °F 93% 29.56 in 3.0 mi SW 13.8 mph - N/A   Overcast
7:56 AM 39.2 °F 31.6 °F 35.6 °F 87% 29.57 in 5.0 mi SW 12.7 mph 19.6 mph N/A   Overcast
8:16 AM 39.2 °F 32.5 °F 35.6 °F 87% 29.58 in 6.0 mi SW 10.4 mph 17.3 mph N/A   Overcast
8:36 AM 39.2 °F 32.5 °F 35.6 °F 87% 29.59 in 10.0 mi WSW 10.4 mph - N/A   Overcast
8:56 AM 39.2 °F 31.6 °F 35.6 °F 87% 29.60 in 10.0 mi SW 12.7 mph 18.4 mph N/A   Overcast
9:16 AM 39.2 °F 33.0 °F 35.6 °F 87% 29.61 in 10.0 mi WSW 9.2 mph - N/A   Overcast
9:36 AM 39.2 °F 34.2 °F 35.6 °F 87% 29.62 in 10.0 mi West 6.9 mph - N/A   Overcast
9:56 AM 39.2 °F 33.0 °F 35.6 °F 87% 29.63 in 10.0 mi WSW 9.2 mph 16.1 mph N/A   Overcast
10:16 AM 39.2 °F 33.6 °F 35.6 °F 87% 29.64 in 10.0 mi SW 8.1 mph - N/A   Overcast
10:36 AM 39.2 °F 34.2 °F 35.6 °F 87% 29.65 in 10.0 mi SW 6.9 mph - N/A   Overcast
10:56 AM 39.2 °F 33.6 °F 35.6 °F 87% 29.66 in 10.0 mi SW 8.1 mph - N/A   Overcast
11:16 AM 39.2 °F 32.5 °F 35.6 °F 87% 29.66 in 10.0 mi SW 10.4 mph - N/A   Overcast
11:36 AM 39.2 °F 32.0 °F 35.6 °F 87% 29.67 in 10.0 mi SW 11.5 mph - N/A   Overcast
12:16 PM 39.2 °F 33.0 °F 37.4 °F 93% 29.69 in 10.0 mi WSW 9.2 mph - N/A   Overcast
12:36 PM 39.2 °F 32.0 °F 37.4 °F 93% 29.69 in 10.0 mi SW 11.5 mph 17.3 mph N/A   Overcast
12:56 PM 39.2 °F 32.0 °F 37.4 °F 93% 29.71 in 7.0 mi WSW 11.5 mph - N/A   Overcast
1:16 PM 39.2 °F 33.0 °F 37.4 °F 93% 29.72 in 6.0 mi SW 9.2 mph - N/A   Overcast
1:36 PM 39.2 °F 33.0 °F 37.4 °F 93% 29.72 in 3.0 mi WSW 9.2 mph - N/A   Overcast
1:56 PM 39.2 °F 31.6 °F 37.4 °F 93% 29.74 in 3.0 mi SW 12.7 mph 18.4 mph N/A   Overcast
2:16 PM 39.2 °F 31.2 °F 37.4 °F 93% 29.75 in 5.0 mi SW 13.8 mph - N/A   Overcast
2:36 PM 39.2 °F 32.0 °F 37.4 °F 93% 29.75 in 5.0 mi WSW 11.5 mph 16.1 mph N/A   Overcast
2:56 PM 39.2 °F 31.2 °F 37.4 °F 93% 29.76 in 9.0 mi WSW 13.8 mph 20.7 mph N/A   Overcast
3:16 PM 41.0 °F 33.9 °F 37.4 °F 87% 29.76 in 10.0 mi WSW 12.7 mph - N/A   Overcast
3:36 PM 41.0 °F 34.7 °F 37.4 °F 87% 29.77 in 10.0 mi WSW 10.4 mph - N/A   Overcast
3:56 PM 41.0 °F 34.7 °F 37.4 °F 87% 29.77 in 10.0 mi SW 10.4 mph 16.1 mph N/A   Overcast
4:16 PM 41.0 °F 34.7 °F 37.4 °F 87% 29.77 in 10.0 mi SSW 10.4 mph - N/A   Overcast
4:36 PM 41.0 °F 33.9 °F 37.4 °F 87% 29.78 in 10.0 mi SW 12.7 mph 18.4 mph N/A   Overcast
4:56 PM 41.0 °F 33.9 °F 37.4 °F 87% 29.79 in 10.0 mi WSW 12.7 mph 18.4 mph N/A   Overcast
5:16 PM 41.0 °F 34.3 °F 37.4 °F 87% 29.79 in 10.0 mi SW 11.5 mph 18.4 mph N/A   Overcast
5:36 PM 42.8 °F 36.6 °F 37.4 °F 81% 29.79 in 10.0 mi SW 11.5 mph 16.1 mph N/A   Overcast
5:56 PM 42.8 °F 36.2 °F 37.4 °F 81% 29.79 in 10.0 mi SSW 12.7 mph - N/A   Overcast
6:16 PM 42.8 °F 36.2 °F 35.6 °F 76% 29.80 in 10.0 mi SW 12.7 mph - N/A   Overcast
6:36 PM 41.0 °F 34.3 °F 37.4 °F 87% 29.80 in 10.0 mi WSW 11.5 mph 18.4 mph N/A   Overcast
6:56 PM 41.0 °F 34.3 °F 37.4 °F 87% 29.80 in 10.0 mi SW 11.5 mph - N/A   Overcast
7:16 PM 41.0 °F 35.2 °F 37.4 °F 87% 29.80 in 10.0 mi SW 9.2 mph - N/A   Overcast
7:36 PM 41.0 °F 34.3 °F 35.6 °F 81% 29.80 in 10.0 mi SW 11.5 mph 17.3 mph N/A   Overcast
7:56 PM 41.0 °F 34.7 °F 35.6 °F 81% 29.80 in 10.0 mi SW 10.4 mph - N/A   Overcast
8:36 PM 39.2 °F 33.6 °F 37.4 °F 93% 29.81 in 8.0 mi WSW 8.1 mph - N/A   Overcast
8:56 PM 39.2 °F 33.0 °F 35.6 °F 87% 29.81 in 8.0 mi SW 9.2 mph - N/A   Overcast
9:16 PM 39.2 °F 33.0 °F 35.6 °F 87% 29.81 in 9.0 mi WSW 9.2 mph - N/A   Overcast
9:56 PM 39.2 °F 34.2 °F 35.6 °F 87% 29.82 in 7.0 mi SW 6.9 mph - N/A   Overcast
10:16 PM 39.2 °F 35.9 °F 35.6 °F 87% 29.82 in 10.0 mi SSW 4.6 mph - N/A   Overcast
10:36 PM 39.2 °F 35.0 °F 35.6 °F 87% 29.82 in 1.8 mi South 5.8 mph - N/A   Overcast
10:56 PM 39.2 °F 34.2 °F 37.4 °F 93% 29.82 in 1.8 mi South 6.9 mph - N/A   Overcast
11:16 PM 39.2 °F 34.2 °F 37.4 °F 93% 29.82 in 3.0 mi SSE 6.9 mph - N/A   Overcast
11:36 PM 39.2 °F 35.0 °F 37.4 °F 93% 29.82 in 4.0 mi South 5.8 mph - N/A   Overcast
11:56 PM 39.2 °F 35.0 °F 37.4 °F 93% 29.82 in 4.0 mi SSW 5.8 mph - N/A   Overcast